Miscellaneous Local Product
Issued by NWS Hastings, NE

Home | Current Version | Previous Version | Text Only | Print | Product List | Glossary Off
Versions: 1 2 3 4 5 6 7 8 9 10 11 12 13 14 15 16 17 18 19 20 21 22 23 24 25 26 27 28 29 30 31 32 33 34 35 36 37 38 39 40 41 42 43 44 45 46 47 48 49 50

000
AXUS43 KGID 220602
MISGRI

GID CWA HOURLY WEATHER ROUNDUP
NATIONAL WEATHER SERVICE HASTINGS NE
100 AM CDT MON SEP 22 2014

NOTE: "FAIR" INDICATES FEW OR NO CLOUDS BELOW 12,000 FEET WITH NO
SIGNIFICANT WEATHER AND/OR OBSTRUCTIONS TO VISIBILITY.

...SOUTH CENTRAL NEBRASKA...

CITY           SKY/WX    TMP DP  RH WIND       PRES   REMARKS
GRAND ISLAND   CLEAR     50  44  80 CALM      30.31S
HASTINGS       CLEAR     51  43  74 E3        30.31R
KEARNEY        PTCLDY    54  43  66 CALM      30.32S
ORD            CLEAR     43  41  93 CALM      30.30R
YORK           CLEAR     50  46  87 CALM      30.31R
AURORA         CLEAR     47  44  89 CALM      30.30S
LEXINGTON      PTCLDY    49  45  87 CALM      30.32R
HOLDREGE       PTCLDY    50  43  77 CALM      30.31S
HEBRON         CLEAR     47  44  89 CALM      30.30S

...NEBRASKA PANHANDLE...

CITY           SKY/WX    TMP DP  RH WIND       PRES   REMARKS
CHADRON        PTCLDY    64  38  38 S14G20    30.22F
ALLIANCE       PTCLDY    54  42  64 SE9       30.27F
SCOTTSBLUFF    PTCLDY    59  44  57 E10       30.26F
SIDNEY         PTCLDY    57  41  55 SE9       30.31S

...WESTERN AND NORTH CENTRAL NEBRASKA...

CITY           SKY/WX    TMP DP  RH WIND       PRES   REMARKS
VALENTINE      PTCLDY    44  38  79 CALM      30.28F
AINSWORTH      CLEAR     43  39  86 S7        30.29S
ONEILL         CLEAR     49  46  91 CALM      30.30S
BROKEN BOW     CLEAR     44  40  85 CALM      30.31S
IMPERIAL       MOCLDY    59  41  51 SE8       30.30F
NORTH PLATTE   CLOUDY    50  43  77 SE6       30.31R
MCCOOK         CLOUDY    58  44  60 E3        30.31S

...EASTERN NEBRASKA...

CITY           SKY/WX    TMP DP  RH WIND       PRES   REMARKS
NORFOLK        CLEAR     47  44  90 NW3       30.29S
SO SIOUX CITY  CLEAR     48  46  93 W5        30.28R
TEKAMAH        CLEAR     48  45  89 S3        30.27S
COLUMBUS       CLEAR     46  43  87 NW3       30.30S
ALBION         CLEAR     45  41  88 CALM      30.30S
OMAHA EPPLEY   CLEAR     54  50  86 CALM      30.28R
OFFUTT AFB     CLEAR     48  48 100 NE1       30.27S
MILLARD        CLEAR     53  51  95 CALM      30.28R
LINCOLN        CLEAR     50  46  86 N3        30.30R
NEBRASKA CITY    N/A     56  42  59 N3        30.28R
BEATRICE       CLEAR     48  46  93 CALM      30.29S
FALLS CITY     CLEAR     52  49  89 NW5       30.27R

...NORTHERN KANSAS...

CITY           SKY/WX    TMP DP  RH WIND       PRES   REMARKS
GOODLAND       CLOUDY    61  42  49 SE12      30.32F
HILL CITY      PTCLDY    54  45  71 CALM      30.31S
NORTON         PTCLDY    54  37  54 E3        30.31
SMITH CENTER   CLEAR     54  43  66 E8        30.31R HAZE
BELOIT         CLEAR     48  46  93 CALM      30.29S
HAYS           PTCLDY    57  39  51 NE6       30.30S
RUSSELL        PTCLDY    53  45  74 E7        30.28F
CONCORDIA      CLEAR     53  47  79 SE3       30.30R
SALINA         CLEAR     58  47  66 CALM      30.29R
TOPEKA         CLEAR     56  50  80 CALM      30.27R



USA.gov is the U.S. government's official web portal to all federal, state and local government web resources and services.